SCP
0 0 0 0 0 0 0 0 0 0 0 0 0 0 0 0 0 0 0 0 0 -0 0 0 0 0 0 0 0 0 0 0 0 0 0 0 0 0 0 0 0 0 0 0 0 0 0 0 0 0 0 0 0 0
0 0 0 0 0 0 0 0 0 0 0 0 0 0 0 0 0 0 0 0 0 0 0 0 0 0 0 0 0 0 0 0 0 0 0 0 0 0 0 0 0 0 0 0 0 0 0 0 0 0 0 0 0 0
0 0 0 0 0 0 0 0 0 0 0 0 0 0 0 0 0 0 0 0 0 0 -0 0 0 0 0 0 0 0 0 0 0 0 0 0 0 -0 -0 -0 0 0 0 0 0 0 0 0 0 0 0 0 0 0
0 0 0 0 0 0 0 0 0 0 0 0 0 0 0 0 0 0 0 0 0 0 0 -0 0 0 0 0 0 0 0 0 0 0 0 0 0 0 -0 -0 -0 -0 0 0 0 0 0 0 0 0 0 0 0 0
0 0 0 0 0 0 0 0 0 0 0 0 0 0 0 0 0 0 0 0 0 0 0 0 0 0 0 0 0 0 0 0 0 0 0 0 0 0 0 0 0 0 0 0 0 0 0 0 0 0 0 0 0 0
0 0 0 0 0 0 0 0 0 0 0 0 0 0 0 0 0 0 0 0 0 0 0 0 0 0 0 0 0 0 0 0 0 0 0 0 0 0 0 0 0 0 0 0 0 0 0 0 0 0 0 0 0 0
0 0 0 0 0 0 0 0 0 0 0 0 0 0 0 0 0 0 0 0 0 0 0 0 0 0 0 0 0 0 0 0 0 0 0 0 0 0 0 0 0 0 0 0 0 0 0 0 0 0 0 0 0 0
0 0 0 0 0 0 0 0 0 0 0 0 0 0 0 0 0 0 0 0 0 0 0 0 0 0 0 0 0 0 0 0 0 0 0 0 0 0 0 0 0 0 0 0 0 0 0 0 0 0 0 0 0 0
0 0 0 0 0 0 0 0 0 0 0 0 0 0 0 0 0 0 0 0 0 0 0 0 0 0 0 0 0 0 0 0 0 0 0 0 0 0 0 0 0 0 0 0 0 0 0 0 0 0 0 0 0 0
0 0 0 0 0 0 0 0 0 0 0 0 0 0 0 0 0 0 0 0 0 0 0 -0 0 0 0 0 0 0 0 0 0 0 0 0 0 0 0 0 0 0 0 0 0 0 0 0 0 0 0 0 0 0
0 0 0 0 0 0 0 0 0 0 0 0 0 0 0 0 0 0 0 0 0 0 0 0 0 0 0 0 0 0 0 0 0 0 0 0 0 0 0 0 0 0 0 0 0 0 0 0 0 0 0 0 0 0
0 0 0 0 0 0 0 0 0 0 0 0 0 0 0 0 0 0 0 0 0 0 0 0 0 0 0 0 0 0 0 0 0 0 0 0 0 0 0 0 0 0 0 0 0 0 0 0 0 0 0 0 0 0
0 0 0 0 0 0 0 0 0 0 0 0 0 0 0 0 0 0 0 0 0 0 0 0 0 0 0 0 0 0 0 0 0 0 0 0 0 0 0 0 0 0 0 0 0 0 0 0 0 0 0 0 0 0
-0 0 0 0 0 0 0 0 0 0 0 0 0 0 0 0 0 0 0 0 0 0 0 0 0 0 0 0 0 0 0 0 0 0 0 0 0 0 0 0 0 0 0 0 0 0 0 0 0 0 0 0 0 0
-0 0 0 0 0 0 0 0 0 0 0 0 0 0 0 0 0 0 0 0 0 0 0 0 0 0 0 0 0 0 0 0 0 0 0 0 0 0 0 0 0 0 0 0 0 0 0 0 0 0 0 0 0 0
0 0 0 0 0 0 0 0 0 0 0 0 0 0 0 0 0 0 0 0 0 0 0 0 0 0 0 0 0 0 0 0 0 0 0 0 0 0 0 0 0 0 0 0 0 0 0 0 0 0 0 0 0 0
0 0 0 0 0 0 0 0 0 0 0 0 0 0 0 0 0 0 0 0 0 0 0 0 0 0 0 0 0 0 0 0 0 0 0 0 0 0 0 0 0 0 0 0 0 0 0 0 0 0 0 0 0 0
0 0 0 0 0 0 0 0 0 0 0 0 0 0 0 0 0 0 0 0 0 0 0 0 0 0 0 0 0 0 0 0 0 0 0 0 0 0 0 0 0 0 0 0 0 0 0 0 0 0 0 0 0 0
0 0 0 0 0 0 0 0 0 0 0 0 0 0 0 0 0 0 0 0 0 0 0 0 0 0 0 0 0 0 0 0 0 0 0 0 0 0 0 0 0 0 0 0 0 0 0 0 0 0 0 0 0 0
0 0 0 0 0 0 0 0 0 0 0 0 0 0 0 0 0 0 0 0 0 0 0 0 0 0 0 0 0 0 0 0 0 0 0 0 0 0 0 0 0 0 0 0 0 0 0 0 0 0 0 0 0 0
0 0 0 0 0 0 0 0 0 0 0 0 0 0 0 0 0 0 0 0 0 0 0 0 0 0 0 0 0 0 0 0 0 0 0 0 0 0 0 0 0 0 0 0 0 0 0 0 0 0 0 0 0 0
0 0 0 0 0 0 0 0 0 0 0 0 0 0 0 0 0 0 0 0 0 0 0 0 0 0 0 0 0 0 0 0 0 0 0 0 0 0 0 0 0 0 0 0 0 0 0 0 0 0 0 0 0 0
0 0 0 0 0 0 0 0 0 0 0 0 0 0 0 0 0 0 0 0 0 0 0 0 0 0 0 0 0 0 0 0 0 0 0 0 0 0 0 0 0 0 0 0 0 0 0 0 0 0 0 0 0 0
0 0 0 0 0 0 0 0 0 0 0 0 0 0 0 0 0 0 0 0 0 0 0 0 0 0 0 0 0 0 0 0 0 0 0 0 0 0 0 0 0 0 0 0 0 0 0 0 0 0 0 0 0 0
0 0 0 0 0 0 0 0 0 0 0 0 0 0 0 0 0 0 0 0 0 0 0 0 0 0 0 0 0 0 0 0 0 0 0 0 0 0 0 0 0 0 0 0 0 0 0 0 0 0 0 0 0 0
0 0 0 0 0 0 0 0 0 0 0 0 0 0 0 0 0 0 0 0 0 0 0 0 0 0 0 0 0 0 0 0 0 0 0 0 0 0 0 0 0 0 0 0 0 0 0 0 0 0 0 0 0 0
0 0 0 0 0 0 0 0 0 0 0 0 0 0 0 0 0 0 0 0 0 0 0 0 0 0 0 0 0 0 0 0 0 0 0 0 0 0 0 0 0 0 0 0 0 0 0 0 0 0 0 0 0 0
0 0 0 0 0 0 0 0 0 0 0 0 0 0 0 0 0 0 0 0 0 0 0 0 0 0 0 0 0 0 0 0 0 0 0 0 0 0 0 0 0 0 0 0 0 0 0 0 0 0 0 0 0 0
0 0 0 0 0 0 0 0 0 0 0 0 0 0 0 0 0 0 0 0 0 0 0 0 0 0 0 0 0 0 0 0 0 0 0 0 0 0 0 0 0 0 0 0 0 0 0 0 0 0 0 0 0 0
0 0 0 0 0 0 0 0 0 0 0 0 0 0 0 0 0 0 0 0 0 0 0 0 0 0 0 0 0 0 0 0 0 0 0 0 0 0 0 0 0 0 0 0 0 0 0 0 0 0 0 0 0 0
0 0 0 0 0 0 0 0 0 0 0 0 0 0 0 0 0 0 0 0 0 0 0 0 0 0 0 0 0 0 0 0 0 0 0 0 0 0 0 0 0 0 0 0 0 0 0 0 0 0 0 0 0 0
0 0 0 0 0 0 0 0 0 0 0 0 0 0 0 0 0 0 0 0 0 0 0 0 0 0 0 0 0 0 0 0 0 0 0 0 0 0 0 0 0 0 0 0 0 0 0 0 0 0 0 0 0 0
0 0 0 0 0 0 0 0 0 0 0 0 0 0 0 0 0 0 0 0 0 0 0 0 0 0 0 0 0 0 0 0 0 0 0 -0 -0 -0 0 0 0 0 0 0 0 0 0 0 0 0 0 0 0 0
Wind_Speed_500mb
69 66 58 55 52 58 66 61 62 61 59 61 59 59 54 49 46 44 49 45 49 27 53 57 64 39 25 37 16 9 2 10 4 9 8 7 6 13 6 10 18 20 21 11 14 15 15 25 15 13 8 9 11 14
62 58 53 52 53 57 58 59 60 58 63 61 60 57 51 45 42 41 45 42 34 31 14 50 69 79 70 47 45 29 12 10 22 2 5 4 4 3 2 13 0 7 9 9 16 11 2 31 7 27 13 8 8 7
60 52 47 49 52 57 55 56 56 54 52 56 57 58 52 49 44 45 47 40 31 19 33 40 51 78 70 64 70 46 24 44 26 12 4 3 11 6 6 7 3 5 3 4 2 8 10 26 23 12 12 8 8 9
50 45 45 48 52 46 46 48 50 49 48 51 54 54 51 46 43 41 45 46 39 17 6 15 42 58 68 83 75 70 52 27 33 18 6 4 2 4 5 4 13 7 14 13 10 7 7 22 30 29 19 14 11 3
48 44 42 43 40 38 40 43 44 45 45 47 52 51 48 45 43 42 46 50 49 39 5 6 23 44 63 63 62 71 61 47 25 7 6 11 3 4 2 3 7 13 13 10 11 14 10 6 18 38 38 32 23 14
47 43 42 41 38 38 40 41 42 43 46 44 42 45 47 48 43 43 31 56 60 55 13 6 14 19 40 57 53 49 60 42 32 14 8 11 9 15 8 6 11 34 25 17 7 15 13 12 15 22 39 32 22 13
44 44 41 40 37 39 41 42 43 42 45 44 42 41 40 42 46 58 15 8 25 60 10 5 6 10 28 27 26 29 37 27 32 16 10 6 9 15 5 8 6 12 29 20 9 8 7 13 9 16 31 33 25 22
42 40 40 39 37 40 40 41 41 40 42 40 34 30 32 36 38 46 58 26 15 44 17 6 3 2 23 13 11 31 23 27 16 12 12 6 6 4 7 12 5 6 18 20 20 24 19 20 18 21 32 32 25 27
40 38 37 37 36 35 36 36 42 40 39 36 26 19 15 15 14 41 41 45 48 34 3 7 14 9 34 15 13 13 18 6 10 5 5 17 6 10 12 2 11 12 15 14 18 20 21 25 21 23 28 30 31 32
38 34 32 32 33 37 37 32 32 29 27 23 22 12 10 15 25 13 17 17 31 30 20 5 7 4 22 14 9 9 12 6 6 8 15 7 7 8 19 18 20 20 18 16 22 25 31 33 34 34 35 34 30 29
33 32 27 31 31 39 33 32 31 29 29 25 16 20 11 6 21 16 11 10 8 6 15 19 30 6 17 6 6 5 6 3 8 9 10 5 6 9 31 28 25 25 24 23 24 26 29 36 39 38 37 34 31 28
28 27 27 31 31 37 36 31 28 35 25 25 18 19 12 11 9 7 9 4 7 12 10 11 18 22 18 13 5 6 6 4 9 8 5 5 7 14 29 28 24 24 25 27 32 31 34 37 37 34 33 31 28 24
21 22 27 32 33 35 30 26 26 27 35 28 16 10 10 9 9 10 13 6 4 5 18 17 6 23 12 14 2 6 9 9 11 6 6 9 7 11 19 21 20 22 24 26 30 32 32 32 32 29 25 23 21 20
36 37 35 25 24 29 30 26 22 29 25 12 14 10 11 7 10 9 9 8 8 6 44 43 11 7 13 8 6 9 3 8 6 6 13 2 5 8 12 16 17 21 23 24 26 27 28 27 27 26 24 23 21 17
55 42 33 25 21 21 24 26 24 26 7 9 8 9 10 8 3 2 4 3 12 5 13 6 6 14 6 8 8 6 5 8 10 12 1 4 3 6 10 14 19 22 25 27 28 28 29 29 29 31 29 26 23 22
32 33 23 18 15 13 8 19 33 20 7 3 6 2 10 3 6 17 21 7 20 19 7 7 6 7 11 7 9 9 16 16 6 2 3 6 6 9 12 16 19 24 27 32 34 34 35 35 34 36 37 34 31 26
12 9 8 6 5 6 6 15 14 9 7 8 5 17 10 13 3 11 21 22 28 14 4 5 10 6 2 6 6 6 3 3 2 9 10 10 13 17 18 23 28 31 34 36 39 39 40 40 38 36 36 36 29 26
17 16 12 8 3 4 11 7 9 10 11 15 7 8 18 16 7 9 24 28 15 11 11 5 5 12 6 3 1 3 7 12 14 17 18 20 23 27 29 32 37 39 42 42 41 42 40 36 34 36 33 31 24 22
14 18 19 13 10 7 7 8 8 8 9 11 17 18 16 16 33 28 15 11 24 20 13 12 13 6 4 5 6 11 9 4 8 21 26 25 28 32 35 37 39 40 40 39 38 38 35 32 32 29 27 24 16 15
25 13 12 15 18 9 11 10 9 13 4 7 10 11 11 12 15 25 37 32 25 15 16 11 5 4 6 5 4 4 12 18 29 31 33 31 34 34 37 39 40 38 39 38 38 35 29 27 25 22 18 15 12 9
21 9 20 23 12 16 15 9 12 10 13 13 14 8 10 17 18 23 26 28 23 15 6 12 10 8 5 6 7 11 16 17 24 17 33 34 30 31 34 34 33 32 32 30 30 30 23 22 20 16 12 10 8 7
15 21 18 14 12 12 15 15 12 9 10 11 10 10 11 6 11 18 15 30 14 13 9 10 13 11 12 16 16 18 15 13 23 30 31 35 35 33 34 33 31 32 30 27 23 21 18 17 14 11 10 10 11 13
20 14 15 15 11 14 7 11 9 11 6 5 7 7 6 7 9 12 12 13 10 17 11 11 12 15 20 19 17 21 22 23 31 32 31 33 34 32 31 31 27 24 24 23 20 15 11 11 8 7 9 11 14 17
15 17 20 17 27 7 9 14 11 9 9 7 6 6 5 6 7 11 7 7 13 11 11 11 15 25 27 27 32 30 29 28 31 33 30 28 30 30 26 24 20 18 16 16 13 8 7 8 10 13 15 19 23 27
14 25 18 16 22 13 13 9 10 7 7 7 6 6 4 7 5 6 4 3 12 16 17 18 21 26 34 34 33 32 30 29 31 35 33 25 24 24 20 15 10 8 9 6 6 9 13 18 21 24 27 30 33 35
18 21 13 11 13 9 7 7 10 11 7 6 7 4 5 5 7 6 2 3 6 12 16 19 21 25 29 29 29 28 27 25 21 19 23 18 14 12 8 4 4 9 10 11 13 17 20 22 24 25 26 29 33 39
13 8 13 19 9 7 8 11 10 8 9 9 6 9 5 8 5 0 6 7 8 11 15 17 19 21 23 23 21 21 18 16 14 11 8 4 1 1 5 9 12 16 19 19 19 19 20 23 26 31 33 33 36 42
13 20 9 21 14 19 6 6 9 10 7 13 5 9 5 4 4 7 7 15 13 13 13 15 15 16 15 14 12 9 5 2 1 3 5 7 10 13 15 12 15 17 18 21 23 26 30 33 37 41 44 44 43 41
13 23 7 11 9 13 14 9 8 7 11 5 3 4 4 5 13 20 21 16 14 15 15 14 13 10 8 6 3 0 2 4 5 6 7 9 13 15 15 19 22 26 28 29 31 35 38 41 43 47 50 51 51 51
25 34 9 11 8 10 14 15 15 19 16 14 15 23 25 24 22 20 17 13 12 11 10 8 7 5 4 1 1 2 3 5 6 9 13 14 17 21 25 27 29 32 37 39 38 37 38 43 44 45 48 50 50 52
16 17 12 16 9 10 16 20 31 38 41 45 42 38 20 15 21 18 14 10 6 3 4 3 3 3 3 5 6 7 10 10 13 17 20 22 25 27 29 31 33 36 37 39 40 41 43 45 46 48 49 50 50 52
19 17 7 7 5 15 14 12 12 10 12 11 14 11 9 6 5 5 8 10 9 6 3 4 5 5 5 7 9 10 13 15 17 19 23 26 27 29 32 32 34 37 39 41 42 44 45 49 52 53 57 59 59 60
8 12 12 7 9 11 21 15 15 7 11 8 12 12 9 4 3 4 6 6 7 6 6 7 8 9 10 12 13 17 18 19 21 24 27 29 29 30 32 33 34 36 41 43 45 48 50 53 57 59 63 66 69 71
Wind_Direction_500mb
251 240 237 241 247 253 247 249 244 242 244 244 237 236 236 233 231 235 246 244 239 244 253 230 226 221 202 211 211 208 137 229 212 226 199 227 237 214 170 183 176 179 174 188 210 220 245 180 103 199 217 137 163 186
245 234 235 241 247 251 247 247 240 240 243 236 234 230 228 231 229 235 246 254 260 246 267 238 233 230 226 227 219 212 220 190 225 223 222 222 274 293 294 206 295 201 188 187 196 203 65 183 237 195 167 150 163 183
241 234 237 242 244 248 247 241 237 240 236 230 229 224 223 226 230 232 241 252 261 266 270 262 240 231 225 226 233 225 225 232 239 234 275 263 242 158 189 210 82 261 135 258 10 247 213 208 216 194 188 188 205 236
238 230 235 240 244 244 242 234 233 232 232 228 224 220 221 224 229 232 238 248 246 253 264 240 241 233 234 227 230 240 241 232 229 233 254 262 214 17 264 291 223 187 153 178 256 246 279 242 225 227 220 210 205 198
231 227 233 237 240 245 238 230 227 227 225 224 222 219 223 229 234 237 243 247 248 230 281 261 256 236 227 222 219 235 241 237 216 202 210 245 184 161 227 313 245 189 183 168 221 206 189 198 222 215 211 203 199 227
224 222 228 230 232 241 232 227 223 225 221 219 222 224 231 234 232 239 255 249 239 237 243 207 234 219 219 221 218 224 224 228 211 199 206 216 229 192 199 218 260 209 210 200 233 202 209 189 207 212 214 206 196 188
222 217 226 228 232 238 228 226 222 220 217 220 223 227 230 230 221 212 207 222 217 216 223 245 242 213 195 192 189 217 230 217 211 225 213 177 224 212 190 219 258 271 221 211 196 173 208 221 243 224 199 183 174 174
217 213 223 229 229 233 225 220 217 215 209 205 207 210 218 219 220 226 224 232 202 185 195 226 223 92 165 177 174 189 182 204 211 208 164 179 183 259 246 238 202 188 193 206 207 213 237 214 198 185 180 181 176 162
208 207 218 221 226 214 210 200 191 183 186 183 181 185 191 219 213 237 236 230 225 224 261 151 160 206 172 188 157 170 160 173 201 202 208 158 165 221 224 202 186 188 182 180 194 189 177 181 171 169 177 173 175 163
199 207 210 214 208 202 181 161 153 158 166 170 177 156 193 211 233 216 181 203 211 212 231 203 136 157 167 160 191 142 185 180 162 235 154 211 239 220 216 210 206 202 198 186 163 156 162 153 151 147 152 156 162 161
193 201 205 202 210 169 168 173 179 187 181 182 174 192 203 199 173 188 190 197 206 194 199 204 185 156 180 158 183 180 178 181 164 214 173 203 267 197 204 201 198 195 193 184 182 171 168 163 154 151 147 150 155 159
193 193 195 191 197 169 176 184 187 188 189 184 172 173 181 195 224 218 184 268 172 209 190 162 181 171 152 176 118 192 157 97 219 127 153 225 234 157 181 187 191 189 185 180 179 171 166 166 163 165 166 167 171 176
166 178 176 180 180 170 174 186 185 186 181 168 180 164 174 214 212 202 198 223 294 180 163 170 153 156 134 168 151 189 165 181 111 150 226 229 101 166 180 183 181 179 175 171 170 174 174 172 170 169 170 171 179 189
141 129 118 117 138 151 167 169 182 181 182 174 156 199 191 230 235 185 184 205 273 248 163 160 130 144 162 167 149 205 192 124 135 151 232 58 147 177 186 188 176 167 165 160 158 157 159 161 162 163 164 163 161 162
114 114 114 128 151 178 192 186 183 200 217 160 187 206 212 315 84 104 124 280 337 259 170 108 124 153 198 172 171 143 120 183 195 215 58 43 133 155 149 157 159 157 156 155 151 150 148 146 147 145 139 135 133 135
129 134 98 116 117 102 115 180 189 183 186 196 40 62 340 65 352 17 9 14 352 338 244 183 171 199 212 151 172 184 163 197 207 70 50 125 128 129 142 150 149 145 143 142 139 138 134 133 134 131 126 122 119 117
165 126 141 129 110 83 103 153 155 117 95 50 34 48 76 100 86 2 349 335 333 336 271 255 198 153 58 101 113 43 270 356 33 87 102 114 121 121 128 133 130 131 129 128 127 124 123 120 117 119 122 115 114 113
205 201 213 223 223 151 123 97 89 74 63 35 74 39 65 49 41 19 351 357 352 9 4 64 12 46 44 104 93 31 93 101 104 104 102 109 113 116 122 124 124 125 124 123 123 120 116 120 126 117 112 109 112 109
226 219 225 222 206 161 100 72 58 95 75 94 89 67 71 79 47 37 26 47 62 76 83 39 60 49 61 41 358 25 71 125 131 111 104 109 117 120 123 124 123 123 123 121 120 118 118 119 112 109 108 105 105 97
205 222 222 199 189 145 92 67 71 88 90 106 85 63 68 68 40 33 41 51 62 50 46 43 51 354 336 9 28 80 112 128 129 110 107 113 117 123 126 125 122 122 121 120 115 111 110 108 105 100 95 90 79 65
227 212 154 152 111 75 84 78 70 81 112 85 104 64 71 45 37 27 24 21 60 35 63 36 35 30 54 91 116 125 140 145 145 145 135 125 129 130 125 121 119 119 115 111 111 109 108 101 95 88 77 61 43 20
139 139 121 88 78 73 75 57 81 86 74 102 68 56 45 36 25 20 29 43 59 29 36 36 46 77 101 105 110 122 125 134 137 139 135 132 130 129 125 122 124 118 113 107 98 94 92 87 77 62 41 23 9 355
114 106 66 47 83 54 20 35 69 38 70 64 59 48 37 45 42 31 68 55 62 17 43 65 76 94 104 103 118 122 128 132 129 124 129 131 126 123 122 117 111 112 114 107 97 85 76 68 47 14 0 345 331 320
90 57 34 39 31 28 11 31 38 46 63 53 51 64 39 33 51 62 71 48 9 31 74 94 110 113 111 113 106 108 114 121 123 123 123 124 121 112 108 105 107 107 104 96 85 65 29 356 330 315 308 306 307 307
79 15 24 7 17 22 27 18 8 28 59 41 75 56 13 24 69 59 68 55 36 62 80 96 108 120 113 106 105 108 114 118 121 118 112 107 105 103 100 97 87 80 68 50 7 325 308 300 302 306 307 307 308 308
68 23 44 6 9 40 358 39 21 16 10 67 45 25 35 67 68 60 46 125 97 87 100 110 111 113 109 109 112 118 117 118 116 120 116 116 113 106 95 72 327 303 296 299 301 301 302 302 304 307 312 313 313 312
50 343 25 24 16 16 43 35 25 37 45 29 356 351 42 65 72 120 124 118 124 108 104 107 113 116 115 119 121 122 117 114 116 111 102 100 109 317 313 306 298 301 306 307 308 310 313 314 312 310 310 313 316 315
56 34 36 358 41 36 69 39 27 21 9 346 308 35 67 102 148 152 146 133 110 108 112 116 115 113 112 116 123 136 152 161 268 277 284 294 296 297 298 296 297 300 308 314 314 313 311 312 314 313 312 314 315 316
23 357 50 23 34 54 40 19 5 328 326 337 7 83 102 84 129 134 135 126 115 106 100 102 105 103 100 96 90 151 251 271 289 295 312 314 308 312 305 309 310 308 306 306 307 310 311 312 311 310 312 314 315 316
7 18 65 35 47 48 10 22 15 48 71 86 98 104 95 101 113 118 117 113 112 101 93 88 89 96 87 83 347 334 309 305 310 312 317 311 302 301 301 300 299 298 301 304 304 301 300 300 301 301 302 303 305 305
22 25 47 43 69 29 33 63 70 73 77 84 94 91 92 98 89 76 79 76 75 102 125 89 42 13 354 343 333 322 313 299 295 292 290 292 295 298 300 300 299 297 297 298 299 301 302 302 303 304 305 305 306 306
24 31 34 52 27 26 33 40 44 60 48 52 41 43 54 65 76 73 36 37 42 41 38 2 354 342 320 314 309 303 300 293 293 299 304 305 304 299 297 297 298 298 299 300 302 302 303 303 303 304 305 306 307 307
30 27 39 30 22 17 5 8 32 32 48 43 37 33 37 45 92 31 4 3 5 354 340 326 321 314 310 308 307 310 306 303 299 297 297 298 300 301 301 302 300 298 298 300 301 301 302 302 302 303 304 305 306 306
Wind_Speed_850mb
69 66 58 55 52 58 66 61 62 61 59 61 59 59 54 49 46 44 49 45 49 27 53 57 64 39 25 37 16 9 2 10 4 9 8 7 6 13 6 10 18 20 21 11 14 15 15 25 15 13 8 9 11 14
62 58 53 52 53 57 58 59 60 58 63 61 60 57 51 45 42 41 45 42 34 31 14 50 69 79 70 47 45 29 12 10 22 2 5 4 4 3 2 13 0 7 9 9 16 11 2 31 7 27 13 8 8 7
60 52 47 49 52 57 55 56 56 54 52 56 57 58 52 49 44 45 47 40 31 19 33 40 51 78 70 64 70 46 24 44 26 12 4 3 11 6 6 7 3 5 3 4 2 8 10 26 23 12 12 8 8 9
50 45 45 48 52 46 46 48 50 49 48 51 54 54 51 46 43 41 45 46 39 17 6 15 42 58 68 83 75 70 52 27 33 18 6 4 2 4 5 4 13 7 14 13 10 7 7 22 30 29 19 14 11 3
48 44 42 43 40 38 40 43 44 45 45 47 52 51 48 45 43 42 46 50 49 39 5 6 23 44 63 63 62 71 61 47 25 7 6 11 3 4 2 3 7 13 13 10 11 14 10 6 18 38 38 32 23 14
47 43 42 41 38 38 40 41 42 43 46 44 42 45 47 48 43 43 31 56 60 55 13 6 14 19 40 57 53 49 60 42 32 14 8 11 9 15 8 6 11 34 25 17 7 15 13 12 15 22 39 32 22 13
44 44 41 40 37 39 41 42 43 42 45 44 42 41 40 42 46 58 15 8 25 60 10 5 6 10 28 27 26 29 37 27 32 16 10 6 9 15 5 8 6 12 29 20 9 8 7 13 9 16 31 33 25 22
42 40 40 39 37 40 40 41 41 40 42 40 34 30 32 36 38 46 58 26 15 44 17 6 3 2 23 13 11 31 23 27 16 12 12 6 6 4 7 12 5 6 18 20 20 24 19 20 18 21 32 32 25 27
40 38 37 37 36 35 36 36 42 40 39 36 26 19 15 15 14 41 41 45 48 34 3 7 14 9 34 15 13 13 18 6 10 5 5 17 6 10 12 2 11 12 15 14 18 20 21 25 21 23 28 30 31 32
38 34 32 32 33 37 37 32 32 29 27 23 22 12 10 15 25 13 17 17 31 30 20 5 7 4 22 14 9 9 12 6 6 8 15 7 7 8 19 18 20 20 18 16 22 25 31 33 34 34 35 34 30 29
33 32 27 31 31 39 33 32 31 29 29 25 16 20 11 6 21 16 11 10 8 6 15 19 30 6 17 6 6 5 6 3 8 9 10 5 6 9 31 28 25 25 24 23 24 26 29 36 39 38 37 34 31 28
28 27 27 31 31 37 36 31 28 35 25 25 18 19 12 11 9 7 9 4 7 12 10 11 18 22 18 13 5 6 6 4 9 8 5 5 7 14 29 28 24 24 25 27 32 31 34 37 37 34 33 31 28 24
21 22 27 32 33 35 30 26 26 27 35 28 16 10 10 9 9 10 13 6 4 5 18 17 6 23 12 14 2 6 9 9 11 6 6 9 7 11 19 21 20 22 24 26 30 32 32 32 32 29 25 23 21 20
36 37 35 25 24 29 30 26 22 29 25 12 14 10 11 7 10 9 9 8 8 6 44 43 11 7 13 8 6 9 3 8 6 6 13 2 5 8 12 16 17 21 23 24 26 27 28 27 27 26 24 23 21 17
55 42 33 25 21 21 24 26 24 26 7 9 8 9 10 8 3 2 4 3 12 5 13 6 6 14 6 8 8 6 5 8 10 12 1 4 3 6 10 14 19 22 25 27 28 28 29 29 29 31 29 26 23 22
32 33 23 18 15 13 8 19 33 20 7 3 6 2 10 3 6 17 21 7 20 19 7 7 6 7 11 7 9 9 16 16 6 2 3 6 6 9 12 16 19 24 27 32 34 34 35 35 34 36 37 34 31 26
12 9 8 6 5 6 6 15 14 9 7 8 5 17 10 13 3 11 21 22 28 14 4 5 10 6 2 6 6 6 3 3 2 9 10 10 13 17 18 23 28 31 34 36 39 39 40 40 38 36 36 36 29 26
17 16 12 8 3 4 11 7 9 10 11 15 7 8 18 16 7 9 24 28 15 11 11 5 5 12 6 3 1 3 7 12 14 17 18 20 23 27 29 32 37 39 42 42 41 42 40 36 34 36 33 31 24 22
14 18 19 13 10 7 7 8 8 8 9 11 17 18 16 16 33 28 15 11 24 20 13 12 13 6 4 5 6 11 9 4 8 21 26 25 28 32 35 37 39 40 40 39 38 38 35 32 32 29 27 24 16 15
25 13 12 15 18 9 11 10 9 13 4 7 10 11 11 12 15 25 37 32 25 15 16 11 5 4 6 5 4 4 12 18 29 31 33 31 34 34 37 39 40 38 39 38 38 35 29 27 25 22 18 15 12 9
21 9 20 23 12 16 15 9 12 10 13 13 14 8 10 17 18 23 26 28 23 15 6 12 10 8 5 6 7 11 16 17 24 17 33 34 30 31 34 34 33 32 32 30 30 30 23 22 20 16 12 10 8 7
15 21 18 14 12 12 15 15 12 9 10 11 10 10 11 6 11 18 15 30 14 13 9 10 13 11 12 16 16 18 15 13 23 30 31 35 35 33 34 33 31 32 30 27 23 21 18 17 14 11 10 10 11 13
20 14 15 15 11 14 7 11 9 11 6 5 7 7 6 7 9 12 12 13 10 17 11 11 12 15 20 19 17 21 22 23 31 32 31 33 34 32 31 31 27 24 24 23 20 15 11 11 8 7 9 11 14 17
15 17 20 17 27 7 9 14 11 9 9 7 6 6 5 6 7 11 7 7 13 11 11 11 15 25 27 27 32 30 29 28 31 33 30 28 30 30 26 24 20 18 16 16 13 8 7 8 10 13 15 19 23 27
14 25 18 16 22 13 13 9 10 7 7 7 6 6 4 7 5 6 4 3 12 16 17 18 21 26 34 34 33 32 30 29 31 35 33 25 24 24 20 15 10 8 9 6 6 9 13 18 21 24 27 30 33 35
18 21 13 11 13 9 7 7 10 11 7 6 7 4 5 5 7 6 2 3 6 12 16 19 21 25 29 29 29 28 27 25 21 19 23 18 14 12 8 4 4 9 10 11 13 17 20 22 24 25 26 29 33 39
13 8 13 19 9 7 8 11 10 8 9 9 6 9 5 8 5 0 6 7 8 11 15 17 19 21 23 23 21 21 18 16 14 11 8 4 1 1 5 9 12 16 19 19 19 19 20 23 26 31 33 33 36 42
13 20 9 21 14 19 6 6 9 10 7 13 5 9 5 4 4 7 7 15 13 13 13 15 15 16 15 14 12 9 5 2 1 3 5 7 10 13 15 12 15 17 18 21 23 26 30 33 37 41 44 44 43 41
13 23 7 11 9 13 14 9 8 7 11 5 3 4 4 5 13 20 21 16 14 15 15 14 13 10 8 6 3 0 2 4 5 6 7 9 13 15 15 19 22 26 28 29 31 35 38 41 43 47 50 51 51 51
25 34 9 11 8 10 14 15 15 19 16 14 15 23 25 24 22 20 17 13 12 11 10 8 7 5 4 1 1 2 3 5 6 9 13 14 17 21 25 27 29 32 37 39 38 37 38 43 44 45 48 50 50 52
16 17 12 16 9 10 16 20 31 38 41 45 42 38 20 15 21 18 14 10 6 3 4 3 3 3 3 5 6 7 10 10 13 17 20 22 25 27 29 31 33 36 37 39 40 41 43 45 46 48 49 50 50 52
19 17 7 7 5 15 14 12 12 10 12 11 14 11 9 6 5 5 8 10 9 6 3 4 5 5 5 7 9 10 13 15 17 19 23 26 27 29 32 32 34 37 39 41 42 44 45 49 52 53 57 59 59 60
8 12 12 7 9 11 21 15 15 7 11 8 12 12 9 4 3 4 6 6 7 6 6 7 8 9 10 12 13 17 18 19 21 24 27 29 29 30 32 33 34 36 41 43 45 48 50 53 57 59 63 66 69 71
Wind_Direction_850mb
251 240 237 241 247 253 247 249 244 242 244 244 237 236 236 233 231 235 246 244 239 244 253 230 226 221 202 211 211 208 137 229 212 226 199 227 237 214 170 183 176 179 174 188 210 220 245 180 103 199 217 137 163 186
245 234 235 241 247 251 247 247 240 240 243 236 234 230 228 231 229 235 246 254 260 246 267 238 233 230 226 227 219 212 220 190 225 223 222 222 274 293 294 206 295 201 188 187 196 203 65 183 237 195 167 150 163 183
241 234 237 242 244 248 247 241 237 240 236 230 229 224 223 226 230 232 241 252 261 266 270 262 240 231 225 226 233 225 225 232 239 234 275 263 242 158 189 210 82 261 135 258 10 247 213 208 216 194 188 188 205 236
238 230 235 240 244 244 242 234 233 232 232 228 224 220 221 224 229 232 238 248 246 253 264 240 241 233 234 227 230 240 241 232 229 233 254 262 214 17 264 291 223 187 153 178 256 246 279 242 225 227 220 210 205 198
231 227 233 237 240 245 238 230 227 227 225 224 222 219 223 229 234 237 243 247 248 230 281 261 256 236 227 222 219 235 241 237 216 202 210 245 184 161 227 313 245 189 183 168 221 206 189 198 222 215 211 203 199 227
224 222 228 230 232 241 232 227 223 225 221 219 222 224 231 234 232 239 255 249 239 237 243 207 234 219 219 221 218 224 224 228 211 199 206 216 229 192 199 218 260 209 210 200 233 202 209 189 207 212 214 206 196 188
222 217 226 228 232 238 228 226 222 220 217 220 223 227 230 230 221 212 207 222 217 216 223 245 242 213 195 192 189 217 230 217 211 225 213 177 224 212 190 219 258 271 221 211 196 173 208 221 243 224 199 183 174 174
217 213 223 229 229 233 225 220 217 215 209 205 207 210 218 219 220 226 224 232 202 185 195 226 223 92 165 177 174 189 182 204 211 208 164 179 183 259 246 238 202 188 193 206 207 213 237 214 198 185 180 181 176 162
208 207 218 221 226 214 210 200 191 183 186 183 181 185 191 219 213 237 236 230 225 224 261 151 160 206 172 188 157 170 160 173 201 202 208 158 165 221 224 202 186 188 182 180 194 189 177 181 171 169 177 173 175 163
199 207 210 214 208 202 181 161 153 158 166 170 177 156 193 211 233 216 181 203 211 212 231 203 136 157 167 160 191 142 185 180 162 235 154 211 239 220 216 210 206 202 198 186 163 156 162 153 151 147 152 156 162 161
193 201 205 202 210 169 168 173 179 187 181 182 174 192 203 199 173 188 190 197 206 194 199 204 185 156 180 158 183 180 178 181 164 214 173 203 267 197 204 201 198 195 193 184 182 171 168 163 154 151 147 150 155 159
193 193 195 191 197 169 176 184 187 188 189 184 172 173 181 195 224 218 184 268 172 209 190 162 181 171 152 176 118 192 157 97 219 127 153 225 234 157 181 187 191 189 185 180 179 171 166 166 163 165 166 167 171 176
166 178 176 180 180 170 174 186 185 186 181 168 180 164 174 214 212 202 198 223 294 180 163 170 153 156 134 168 151 189 165 181 111 150 226 229 101 166 180 183 181 179 175 171 170 174 174 172 170 169 170 171 179 189
141 129 118 117 138 151 167 169 182 181 182 174 156 199 191 230 235 185 184 205 273 248 163 160 130 144 162 167 149 205 192 124 135 151 232 58 147 177 186 188 176 167 165 160 158 157 159 161 162 163 164 163 161 162
114 114 114 128 151 178 192 186 183 200 217 160 187 206 212 315 84 104 124 280 337 259 170 108 124 153 198 172 171 143 120 183 195 215 58 43 133 155 149 157 159 157 156 155 151 150 148 146 147 145 139 135 133 135
129 134 98 116 117 102 115 180 189 183 186 196 40 62 340 65 352 17 9 14 352 338 244 183 171 199 212 151 172 184 163 197 207 70 50 125 128 129 142 150 149 145 143 142 139 138 134 133 134 131 126 122 119 117
165 126 141 129 110 83 103 153 155 117 95 50 34 48 76 100 86 2 349 335 333 336 271 255 198 153 58 101 113 43 270 356 33 87 102 114 121 121 128 133 130 131 129 128 127 124 123 120 117 119 122 115 114 113
205 201 213 223 223 151 123 97 89 74 63 35 74 39 65 49 41 19 351 357 352 9 4 64 12 46 44 104 93 31 93 101 104 104 102 109 113 116 122 124 124 125 124 123 123 120 116 120 126 117 112 109 112 109
226 219 225 222 206 161 100 72 58 95 75 94 89 67 71 79 47 37 26 47 62 76 83 39 60 49 61 41 358 25 71 125 131 111 104 109 117 120 123 124 123 123 123 121 120 118 118 119 112 109 108 105 105 97
205 222 222 199 189 145 92 67 71 88 90 106 85 63 68 68 40 33 41 51 62 50 46 43 51 354 336 9 28 80 112 128 129 110 107 113 117 123 126 125 122 122 121 120 115 111 110 108 105 100 95 90 79 65
227 212 154 152 111 75 84 78 70 81 112 85 104 64 71 45 37 27 24 21 60 35 63 36 35 30 54 91 116 125 140 145 145 145 135 125 129 130 125 121 119 119 115 111 111 109 108 101 95 88 77 61 43 20
139 139 121 88 78 73 75 57 81 86 74 102 68 56 45 36 25 20 29 43 59 29 36 36 46 77 101 105 110 122 125 134 137 139 135 132 130 129 125 122 124 118 113 107 98 94 92 87 77 62 41 23 9 355
114 106 66 47 83 54 20 35 69 38 70 64 59 48 37 45 42 31 68 55 62 17 43 65 76 94 104 103 118 122 128 132 129 124 129 131 126 123 122 117 111 112 114 107 97 85 76 68 47 14 0 345 331 320
90 57 34 39 31 28 11 31 38 46 63 53 51 64 39 33 51 62 71 48 9 31 74 94 110 113 111 113 106 108 114 121 123 123 123 124 121 112 108 105 107 107 104 96 85 65 29 356 330 315 308 306 307 307
79 15 24 7 17 22 27 18 8 28 59 41 75 56 13 24 69 59 68 55 36 62 80 96 108 120 113 106 105 108 114 118 121 118 112 107 105 103 100 97 87 80 68 50 7 325 308 300 302 306 307 307 308 308
68 23 44 6 9 40 358 39 21 16 10 67 45 25 35 67 68 60 46 125 97 87 100 110 111 113 109 109 112 118 117 118 116 120 116 116 113 106 95 72 327 303 296 299 301 301 302 302 304 307 312 313 313 312
50 343 25 24 16 16 43 35 25 37 45 29 356 351 42 65 72 120 124 118 124 108 104 107 113 116 115 119 121 122 117 114 116 111 102 100 109 317 313 306 298 301 306 307 308 310 313 314 312 310 310 313 316 315
56 34 36 358 41 36 69 39 27 21 9 346 308 35 67 102 148 152 146 133 110 108 112 116 115 113 112 116 123 136 152 161 268 277 284 294 296 297 298 296 297 300 308 314 314 313 311 312 314 313 312 314 315 316
23 357 50 23 34 54 40 19 5 328 326 337 7 83 102 84 129 134 135 126 115 106 100 102 105 103 100 96 90 151 251 271 289 295 312 314 308 312 305 309 310 308 306 306 307 310 311 312 311 310 312 314 315 316
7 18 65 35 47 48 10 22 15 48 71 86 98 104 95 101 113 118 117 113 112 101 93 88 89 96 87 83 347 334 309 305 310 312 317 311 302 301 301 300 299 298 301 304 304 301 300 300 301 301 302 303 305 305
22 25 47 43 69 29 33 63 70 73 77 84 94 91 92 98 89 76 79 76 75 102 125 89 42 13 354 343 333 322 313 299 295 292 290 292 295 298 300 300 299 297 297 298 299 301 302 302 303 304 305 305 306 306
24 31 34 52 27 26 33 40 44 60 48 52 41 43 54 65 76 73 36 37 42 41 38 2 354 342 320 314 309 303 300 293 293 299 304 305 304 299 297 297 298 298 299 300 302 302 303 303 303 304 305 306 307 307
30 27 39 30 22 17 5 8 32 32 48 43 37 33 37 45 92 31 4 3 5 354 340 326 321 314 310 308 307 310 306 303 299 297 297 298 300 301 301 302 300 298 298 300 301 301 302 302 302 303 304 305 306 306